Regional Weather Roundup
Issued by NWS

Home | Current Version | Previous Version | Graphics & Text | Print | Product List | Glossary On
Versions: 1 2 3 4 5 6 7 8 9 10 11 12 13 14 15 16 17 18 19 20 21 22 23 24 25 26 27 28 29 30 31 32 33 34 35 36 37 38 39 40 41 42 43 44 45 46 47 48 49 50
000
ASUS43 KLOT 190700
RWRIL

ILLINOIS REGIONAL WEATHER ROUNDUP
NATIONAL WEATHER SERVICE CHICAGO/ROMEOVILLE IL
100 AM CST FRI DEC 19 2014

NOTE: "FAIR" INDICATES FEW OR NO CLOUDS BELOW 12,000 FEET WITH NO
SIGNIFICANT WEATHER AND/OR OBSTRUCTIONS TO VISIBILITY.

* THESE STATIONS ARE NOT UNDER NWS QUALITY CONTROL. THEY ALSO MAY NOT
  REPORT WEATHER SUCH AS PRECIPITATION OR FOG.

ILZ001-002-007-009-015-016-024-190800-
NORTHWEST ILLINOIS

CITY           SKY/WX    TMP DP  RH WIND       PRES   REMARKS
MOLINE         CLEAR     18  15  88 CALM      30.31R
STERLING*      CLOUDY    25  18  74 CALM      30.28F
$$

ILZ003-004-008-010-011-017-018-190800-
NORTH CENTRAL ILLINOIS

CITY           SKY/WX    TMP DP  RH WIND       PRES   REMARKS
ROCKFORD       CLOUDY    27  19  72 CALM      30.29F
$$

ILZ005-006-012>014-019>023-190800-
NORTHEAST ILLINOIS

CITY           SKY/WX    TMP DP  RH WIND       PRES   REMARKS
CHICAGO-OHARE  CLOUDY    27  22  81 W6        30.26S WCI  20
CHICAGO-MIDWAY FLURRIES  30  22  72 W9        30.26S WCI  22
AURORA         CLOUDY    26  19  74 NW7       30.27F WCI  18
WAUKEGAN       CLOUDY    27  22  81 NW6       30.25S WCI  20
DUPAGE AIRPORT CLOUDY    27  20  75 W6        30.26S WCI  20
WHEELING       CLOUDY    28  23  81 NW7       30.28S WCI  21
NORTHERLY ISL    N/A     29  24  82 W14         N/A  WCI  18
$$

LMZ740>746-190800-
SOUTHERN LAKE MICHIGAN

STATION/POSITION SKY/WX   TEMP    WIND        PRES    VSBY  WAVE
                          AIR SEA DIR/SP/G                  HT/PER
                          (F)     (DEG/KT/KT) (MB)    (MI)  (FT/S)
WAUKEGAN HARBOR            28     330/  7/ 13   N/A
HARRISON CRIB              28     290/ 13/ 14   N/A
BURNHAM HARBOR             29     260/  9/ 11   N/A
CALUMET HARBOR             29     280/  9/ 12 1023.3S
$$

ILZ025>027-034>036-040-047-049-050-058-095>099-190800-
WEST-CENTRAL ILLINOIS

CITY           SKY/WX    TMP DP  RH WIND       PRES   REMARKS
QUINCY         CLOUDY    28  24  85 CALM      30.29S
$$

ILZ028>032-037-038-041>044-048-051>054-059>061-190800-
CENTRAL ILLINOIS

CITY           SKY/WX    TMP DP  RH WIND       PRES   REMARKS
DECATUR        CLEAR     22  19  89 CALM      30.29S
PEORIA         CLEAR     21  17  84 CALM      30.30S
SPRINGFIELD    CLOUDY    29  23  78 CALM      30.29F
TAYLORVILLE    NOT AVBL
$$

ILZ033-039-045-046-055>057-062-063-190800-
EAST-CENTRAL ILLINOIS

CITY           SKY/WX    TMP DP  RH WIND       PRES   REMARKS
CHAMPAIGN      CLEAR     20  17  88 N6        30.28S WCI  12
MATTOON        CLOUDY    27  21  78 NW7       30.27S WCI  19
$$

ILZ079-100>102-190800-
SOUTHWEST ILLINOIS

CITY           SKY/WX    TMP DP  RH WIND       PRES   REMARKS
CAHOKIA*       CLOUDY    34  28  79 N3        30.29F
$$

ILZ064>066-069>071-074>076-080>082-084>086-088>090-092>094-190800-
SOUTH-CENTRAL ILLINOIS

CITY           SKY/WX    TMP DP  RH WIND       PRES   REMARKS
CARBONDALE     CLOUDY    31  28  89 CALM      30.28S
MT. VERNON     CLOUDY    28  21  74 CALM      30.28F
$$

ILZ067-068-072-073-078-083-087-091-190800-
SOUTHEAST ILLINOIS

CITY           SKY/WX    TMP DP  RH WIND       PRES   REMARKS
LAWRENCEVILLE  PTCLDY    28  24  85 N3        30.29S
$$

ABBREVIATIONS USED IN REMARKS
   TC - TEMPERATURE IN CELSIUS
  WCI - WIND CHILL INDEX
   HX - HEAT INDEX
  VSB - VISIBILITY
$$



USA.gov is the U.S. government's official web portal to all federal, state and local government web resources and services.